Hauptseite
METAR-TAF:

METAR-TAF

Flughäfen :

Hohenfels, Deutschland

Breite: 49-13N, Länge: 011-50E, Höhe: 442 m

Beobachtung

Neuester Wetterbericht von vor 43 Minuten, um 13:56 UTC
Windstille
Temperatur 0°C
Luftfeuchtigkeit 80%
Luftdruck 1023 hPa
Sichtweite 10 km oder mehr
Geschlossene Wolkendecke in der Höhe von 1000 ft

METAR: ETIH 241356Z AUTO 00000KT 9999 OVC010 00/M03 A3021 RMK AO2 SLP266 T10031030

Zeit: 15:39 (14:39 UTC)


TAF: fehlend

Wetterbeobachtungen und Prognosen von mehr als 4000 Flughäfen (METAR und TAF Bericht).

Die verfügbaren Stationen werden durch gelbe und rote Markierungen auf der Karte dargestellt.

Führen Sie die Maus auf sie, um den Namen der Station zu sehen.

Darauf klicken, um die Beobachtung von Wetterbeobachtungen und Prognosen zu sehen.

Um die Karte zu ändern : klicken Sie auf den grünen Tasten mit einem schwarzen Kreuz Zum Vergrößern, auf den grünen Button mit einem Gedankenstrich zu verkleinern, oder auf die grünen Pfeile für benachbarte Karten.


METAR-TAF: